Theta_e
310 310 313 316 319 320 321 322 323 324 324 325 326 326 327 327 328 328 328 328 327 325 325 324 323 322 319 319 318 317 315 311 309 308 307 305 303 301 299 297 295 293 293 292 291 290 290 290 289 288 288 288 288 287 287 287 286 286 286 286 286 286 285 286 287 288 287 286 285 285 286 286 286 286 286 286 286 285 285 285 285 284 283 283 284
311 310 310 312 315 317 319 320 321 323 324 324 325 326 326 327 327 327 327 326 325 325 324 323 321 320 319 318 317 316 312 309 307 305 303 302 302 301 298 295 292 292 292 291 290 289 289 289 289 288 287 287 287 287 287 287 286 286 286 286 285 286 285 285 285 286 286 286 285 285 285 285 286 286 285 285 285 285 285 285 284 283 283 283 283
311 311 311 311 313 315 316 318 320 322 323 323 324 325 325 326 326 326 326 324 323 323 323 322 320 320 319 317 316 313 310 307 305 303 301 301 300 298 295 292 292 292 291 290 290 289 288 289 288 288 287 287 287 287 287 286 286 286 285 286 285 285 285 285 284 285 285 285 284 284 285 285 285 285 284 284 284 285 285 285 284 283 283 283 283
311 311 311 311 313 315 315 317 319 321 322 323 323 324 324 324 324 324 324 323 322 323 322 322 321 319 318 316 314 311 308 307 305 302 300 299 296 294 292 291 291 291 291 290 289 288 288 289 288 288 287 287 287 286 286 286 286 286 286 286 285 285 285 284 283 283 283 284 284 284 283 284 284 284 284 284 284 285 285 285 285 284 283 283 283
310 310 311 312 313 315 316 318 319 320 321 322 322 322 322 323 322 321 322 322 322 322 320 319 319 318 316 315 313 310 307 307 306 302 299 296 293 292 291 290 290 290 290 289 289 289 288 288 288 288 287 287 287 286 286 286 286 286 286 285 285 285 284 283 283 283 283 283 283 283 283 283 283 284 284 283 284 284 284 284 284 283 283 283 282
309 310 311 313 314 316 317 318 319 320 320 321 321 322 322 322 321 320 320 320 320 320 319 318 317 316 315 314 311 309 308 307 305 300 297 294 292 291 290 290 290 289 289 289 288 288 288 288 288 287 287 287 286 286 286 286 286 285 285 285 285 284 283 283 282 282 282 283 283 283 283 283 283 283 283 282 282 283 284 283 283 283 283 282 282
311 311 312 314 315 317 318 318 319 320 320 321 321 321 320 319 319 318 319 320 319 318 318 317 315 314 313 312 310 309 309 307 303 298 295 292 290 290 289 289 289 289 288 288 288 288 288 287 287 287 287 286 286 286 286 286 286 285 285 285 284 283 282 282 282 282 282 282 283 283 283 283 283 283 283 282 282 282 282 283 283 283 282 281 282
312 312 313 314 315 316 317 318 319 319 319 319 318 318 318 318 318 318 318 318 318 318 317 315 313 312 312 311 310 309 309 306 300 296 292 290 290 289 289 289 289 288 288 288 287 287 287 287 287 286 286 286 286 286 286 286 285 285 285 284 283 283 282 282 282 282 282 283 283 283 283 283 283 282 282 282 282 282 282 282 282 282 281 281 281
313 313 313 314 315 316 316 317 317 316 316 316 315 315 316 316 316 316 316 316 316 316 316 314 312 311 310 309 309 308 307 302 296 293 290 289 289 289 289 289 289 288 288 287 287 286 286 286 286 286 286 286 286 286 286 286 285 285 285 284 283 282 282 282 282 282 282 283 283 283 282 283 282 282 282 282 282 282 282 282 281 281 281 281 281
312 312 313 314 314 315 316 316 316 315 314 314 314 314 314 315 315 315 315 315 315 314 313 312 311 310 309 307 306 305 302 297 293 291 290 290 289 289 289 288 288 288 288 287 286 286 286 286 286 286 286 285 285 285 285 285 285 285 284 283 283 282 282 282 282 282 282 282 283 282 282 282 282 282 282 282 282 282 281 281 280 281 281 280 280
312 312 313 314 314 314 315 315 315 315 314 315 315 315 315 315 314 314 314 313 312 312 311 310 309 308 306 304 302 300 296 293 290 289 289 289 289 289 289 288 288 288 287 287 286 286 286 286 285 285 285 285 285 285 285 285 284 284 283 283 282 282 282 282 282 282 282 282 282 282 282 282 282 281 282 282 281 281 280 280 280 280 280 280 280
312 312 312 313 313 314 313 314 313 313 313 313 313 314 314 313 313 312 312 312 311 310 309 308 306 304 302 300 297 294 292 290 289 289 289 289 289 289 289 288 287 287 286 286 286 286 286 286 285 285 285 285 285 285 284 284 284 283 283 282 282 281 282 282 282 282 282 282 281 281 281 281 281 281 281 281 280 279 279 280 280 280 280 280 280
311 311 312 312 312 312 312 312 312 311 311 312 312 312 312 311 311 311 311 310 309 307 306 305 303 300 298 295 292 291 290 289 289 288 288 288 288 288 288 288 287 287 286 286 286 286 286 285 285 285 285 285 285 284 284 284 283 282 282 282 281 281 281 281 282 281 281 281 281 280 281 281 281 281 280 279 279 279 279 279 279 279 279 279 278
310 310 310 311 311 311 310 310 310 310 310 311 311 311 311 310 309 309 309 308 307 305 303 301 299 296 293 291 290 289 289 289 288 288 288 287 287 287 287 287 287 286 286 286 286 286 286 285 285 285 285 285 284 284 284 283 283 282 282 281 281 281 281 281 280 280 280 280 280 280 280 280 280 279 279 278 279 279 279 279 279 278 278 277 277
308 309 309 309 309 309 309 308 308 309 309 309 309 309 309 309 308 307 307 306 305 303 301 298 295 292 291 290 290 289 288 288 288 287 287 287 287 287 287 286 286 286 286 286 286 286 285 285 285 285 285 285 284 283 283 283 282 282 281 281 280 280 280 280 279 279 279 279 280 279 279 279 278 278 278 278 278 278 278 278 278 277 277 277 277
306 307 307 308 308 308 308 307 307 307 307 307 307 307 307 307 305 305 304 302 301 300 297 295 292 290 289 289 289 289 288 288 287 287 287 287 287 287 286 286 286 286 286 286 285 285 285 285 285 285 285 284 283 283 283 283 282 282 281 280 280 280 280 279 279 279 279 279 278 278 278 277 277 277 278 277 277 277 277 277 276 276 276 276 276
304 305 305 306 307 307 307 307 306 306 305 305 305 305 305 304 303 302 301 299 297 296 294 292 290 289 289 289 289 288 288 287 287 287 287 287 286 286 286 286 286 286 285 285 285 285 285 285 285 285 284 283 283 283 283 283 282 281 280 280 279 279 279 279 278 278 278 278 278 279 278 278 277 277 277 276 275 275 275 275 276 276 276 276 276
302 302 303 304 305 306 306 306 305 305 304 304 304 303 303 302 300 299 299 297 295 293 291 290 289 289 289 288 289 288 288 287 287 286 286 286 286 286 286 286 286 285 285 285 285 285 285 284 284 284 283 283 283 283 282 282 282 280 280 279 278 278 278 278 277 277 278 279 279 279 279 279 277 277 276 275 274 274 274 275 275 275 275 275 275
300 300 301 302 303 304 304 304 304 304 304 303 303 302 301 300 298 296 295 294 292 290 289 288 288 288 288 288 288 288 288 287 286 286 286 286 286 286 286 286 285 285 285 285 284 284 284 284 284 283 283 283 283 282 281 281 281 280 279 278 277 277 277 276 276 276 277 278 279 279 279 278 278 277 276 275 274 273 274 274 275 275 275 275 275
298 299 300 300 301 302 302 303 303 303 303 302 301 300 298 297 295 293 291 291 290 288 287 287 287 287 287 287 287 288 288 287 286 286 286 285 285 285 285 286 285 285 285 284 284 284 283 283 283 283 283 282 282 281 280 280 280 280 279 277 276 276 276 276 276 276 277 278 278 278 278 277 277 276 275 274 273 273 273 274 274 274 274 274 274
298 299 299 299 300 300 300 301 301 301 301 301 299 297 296 294 293 291 289 288 287 287 286 286 286 286 286 286 287 287 287 287 286 285 285 285 285 285 285 285 285 285 285 284 284 284 283 283 283 283 282 282 281 280 280 279 279 279 278 277 276 276 276 276 276 276 277 277 278 278 277 277 276 275 274 274 273 272 272 273 273 273 273 274 274
298 298 299 299 299 300 299 300 300 299 299 298 297 295 293 292 291 289 288 287 286 286 285 285 285 285 285 286 286 286 286 286 286 285 285 285 285 285 285 285 285 285 285 284 284 284 283 283 283 282 282 281 280 280 279 279 279 278 277 276 276 276 276 276 276 276 277 277 277 278 277 276 276 275 274 273 273 272 271 272 272 272 272 273 273
298 298 298 298 298 298 298 298 298 297 297 296 295 294 292 290 289 288 287 286 285 284 284 284 284 284 284 285 285 285 285 285 285 285 284 284 284 284 284 284 284 284 284 284 284 284 284 283 283 282 282 281 280 279 279 278 278 277 276 276 276 276 276 276 276 276 277 277 277 277 276 275 275 274 273 272 271 271 271 271 271 271 272 272 273
297 296 296 297 297 297 297 297 296 296 295 294 293 292 291 289 288 287 286 285 285 284 283 283 283 283 284 284 284 284 284 284 284 284 284 284 284 284 284 283 284 284 284 283 284 284 284 283 282 282 281 280 280 279 279 278 277 277 276 277 277 276 276 276 276 277 277 277 277 277 276 275 274 273 272 271 271 271 271 271 271 271 272 272 272
296 296 296 296 296 295 295 295 294 294 293 293 292 291 290 288 286 286 285 284 284 283 282 282 282 282 282 283 283 283 283 283 283 284 284 284 283 283 283 283 284 284 283 283 283 284 283 282 282 281 280 280 279 279 278 277 277 276 276 276 276 276 276 276 276 276 276 276 276 277 276 275 274 273 272 272 272 272 272 271 271 271 272 272 272
295 295 295 295 295 294 294 293 292 292 291 291 291 291 290 288 286 285 284 284 283 283 282 281 281 281 281 281 282 282 282 283 283 283 283 283 283 283 282 283 283 283 283 283 283 282 282 281 281 280 280 279 279 279 278 277 276 276 276 276 276 277 277 276 276 276 275 275 275 275 275 274 274 274 273 273 273 272 271 271 271 271 271 272 271
295 294 294 294 293 293 292 292 291 290 289 289 289 289 288 288 286 284 283 283 282 281 281 280 280 280 281 280 280 281 282 282 282 282 282 282 282 282 282 282 282 282 282 282 281 281 281 281 280 280 279 278 279 278 277 277 276 276 275 276 276 276 276 276 275 275 274 274 274 274 274 273 273 273 273 273 272 271 271 270 271 271 271 271 271
294 294 294 293 292 291 291 291 290 289 288 288 287 287 287 286 285 285 285 284 283 282 281 281 281 282 281 280 280 280 280 281 282 283 282 282 282 282 282 282 282 283 283 282 281 280 280 280 279 278 278 278 278 278 277 276 276 275 275 276 276 276 276 275 274 274 273 273 272 273 273 272 271 271 272 272 270 270 270 270 270 271 271 271 270
293 293 292 291 291 290 290 289 289 288 288 287 287 286 286 286 285 285 285 285 284 283 282 282 283 283 283 282 282 281 280 283 284 284 283 283 283 284 285 284 284 284 283 282 281 280 279 279 278 277 277 277 277 277 276 275 275 275 275 276 275 275 275 275 274 274 273 273 272 272 272 271 270 270 270 269 269 269 269 269 270 271 271 270 270
292 291 290 290 290 289 289 288 288 287 287 286 285 285 285 285 284 284 284 284 283 283 282 282 283 283 282 283 284 284 284 286 285 284 283 283 283 285 287 287 285 284 282 280 280 280 279 278 277 277 277 277 277 276 276 275 275 275 275 275 275 275 274 274 274 274 274 273 272 271 270 270 269 268 267 267 267 268 269 269 270 270 270 270 270
291 290 289 289 289 289 288 288 286 286 285 285 285 284 283 283 283 283 283 283 282 282 282 282 282 282 282 282 283 284 284 285 285 284 284 283 284 285 286 285 284 283 281 280 279 279 278 277 277 277 276 276 276 276 275 275 275 275 275 275 274 274 274 274 274 274 273 272 271 270 269 269 269 267 266 266 267 267 268 269 269 270 270 270 269
291 290 289 289 288 287 287 286 285 285 284 283 283 283 282 281 281 282 282 282 282 282 282 282 282 282 282 282 282 283 283 284 284 284 284 284 285 285 284 283 283 282 280 279 279 279 277 276 277 277 276 276 276 276 275 275 275 275 274 274 274 274 274 274 273 273 272 272 271 270 270 270 269 267 266 266 266 267 267 268 269 269 269 269 269
290 290 289 289 287 286 286 285 284 284 284 283 282 282 281 280 280 281 281 281 281 281 281 281 282 282 282 282 282 282 283 283 284 284 284 285 286 285 283 282 282 280 279 279 279 278 277 276 276 277 277 277 276 275 275 275 275 275 274 274 274 274 274 273 273 273 272 271 271 270 270 270 269 268 267 266 266 266 267 268 269 269 269 269 269
289 288 288 288 287 286 286 285 285 284 284 283 282 281 281 281 281 280 280 280 280 280 280 281 281 281 281 281 282 282 283 283 284 285 286 286 285 283 281 281 281 280 279 279 279 278 277 276 276 277 277 277 276 275 275 275 275 275 275 274 274 274 274 273 273 273 272 271 271 270 270 269 268 267 267 266 265 266 267 267 268 268 268 269 269
287 287 287 286 286 286 286 285 285 284 283 282 282 281 281 281 280 280 280 279 279 280 280 280 280 280 280 281 281 281 282 282 284 285 286 285 283 281 281 280 280 280 279 279 279 279 278 277 278 278 277 276 276 275 275 275 275 275 275 274 274 273 273 273 273 273 272 271 271 270 269 269 268 268 267 266 265 265 266 267 267 268 268 268 268
286 286 285 285 284 285 285 284 284 284 283 283 282 282 281 280 279 279 279 279 279 279 279 280 280 280 280 280 280 280 281 281 283 284 284 283 282 281 280 280 279 279 279 278 277 278 277 277 278 278 277 276 275 275 275 275 276 275 275 274 273 273 273 272 272 272 272 271 271 270 269 269 269 268 267 266 265 265 266 266 267 267 267 268 268
285 285 285 285 284 283 283 283 283 282 282 282 281 280 279 279 279 278 278 278 279 279 279 279 279 280 280 280 280 280 280 281 282 282 282 281 281 281 281 280 279 279 278 277 276 275 275 275 277 277 277 276 275 275 275 275 275 275 274 273 272 272 272 272 272 272 271 271 270 270 270 269 269 268 267 267 266 265 265 266 266 267 267 267 267
285 284 284 284 283 283 282 282 282 281 281 280 280 279 278 278 278 278 278 278 278 278 279 279 279 279 279 279 279 279 280 280 281 281 281 281 281 280 280 279 279 278 277 277 276 274 273 274 276 277 276 276 276 275 275 275 275 274 273 273 272 271 271 271 271 271 271 270 270 270 270 269 268 267 267 267 266 265 265 265 266 266 266 267 267
284 283 283 283 282 282 281 281 281 280 280 279 279 278 278 277 277 277 277 277 277 278 278 278 278 279 279 279 279 279 279 280 280 280 280 280 280 280 279 278 278 277 277 276 276 274 274 275 276 277 276 276 275 275 275 275 274 274 273 272 271 271 271 271 271 271 271 270 270 270 270 269 268 267 267 266 266 266 265 265 266 266 266 266 266
283 282 282 282 281 281 280 280 279 279 279 278 278 278 277 277 276 276 276 276 276 277 277 277 278 278 278 279 279 279 278 279 279 279 279 279 279 279 279 278 277 277 276 275 275 276 276 277 277 276 276 276 275 275 275 275 274 273 272 272 271 271 271 270 270 270 270 270 269 269 269 268 268 267 267 266 266 266 265 265 265 266 266 265 265
281 281 281 280 280 280 279 279 279 279 278 278 277 277 277 276 276 276 276 276 276 276 276 277 277 277 277 278 278 278 278 278 278 278 278 278 278 278 278 277 277 276 275 275 275 276 277 278 277 276 275 275 275 275 274 274 273 273 272 272 271 271 270 270 270 270 269 269 269 268 268 268 267 267 267 266 266 266 265 265 265 265 266 265 265
280 280 280 279 279 279 278 278 278 278 277 277 276 276 276 276 276 275 275 275 275 275 276 276 276 276 276 277 277 277 278 278 278 278 278 278 277 277 277 277 276 276 276 275 275 276 277 278 277 276 275 275 275 275 274 274 273 272 272 272 271 271 270 270 270 269 269 268 268 268 268 267 267 267 267 266 266 266 266 266 265 265 265 266 266
278 278 278 278 278 277 277 277 277 276 276 276 276 276 275 275 275 275 275 274 275 275 275 275 275 276 276 276 276 276 277 277 277 277 277 277 277 277 277 277 277 277 277 275 275 276 277 277 277 276 275 275 275 275 275 275 274 273 272 272 271 271 270 270 269 269 269 268 268 267 267 267 267 266 266 266 266 266 266 266 265 265 265 266 266
277 277 277 277 276 276 276 276 275 275 275 275 275 275 274 274 274 274 274 274 274 274 274 274 275 275 275 275 275 275 275 276 276 277 277 277 277 277 277 277 277 276 276 275 274 275 276 276 276 276 275 274 274 274 274 274 274 273 273 272 271 270 270 270 270 269 269 268 268 267 267 267 266 266 265 265 265 265 265 266 265 265 265 265 266
276 276 276 275 275 275 275 275 275 274 274 274 273 273 273 273 273 273 273 273 273 273 273 274 274 274 274 274 274 274 274 274 275 275 276 276 276 276 276 276 276 276 276 275 275 276 276 276 275 275 274 273 273 273 273 273 273 272 272 272 271 271 271 270 269 269 268 268 268 267 267 266 266 265 265 264 264 264 264 265 265 264 264 264 265
275 275 274 274 274 274 274 274 273 273 273 272 272 272 272 272 272 272 272 272 272 272 272 273 273 273 273 273 273 273 273 273 273 274 274 274 274 274 274 274 274 274 275 275 275 276 276 276 275 274 274 273 273 273 272 272 272 272 271 271 270 270 270 269 268 268 267 267 267 267 266 266 265 265 264 264 263 263 263 264 264 264 264 264 265
274 274 273 273 273 272 272 272 272 271 271 271 271 271 271 271 271 272 272 271 272 272 272 272 272 272 272 272 272 272 272 272 272 273 273 273 273 273 273 272 272 272 273 273 273 275 275 275 274 274 273 273 273 272 272 272 271 271 270 270 270 269 269 268 267 267 267 267 267 266 266 266 265 264 264 263 262 262 262 263 263 263 263 264 264
273 273 272 272 271 271 271 271 270 270 270 270 270 270 270 270 270 270 271 271 271 271 271 271 271 271 271 271 271 271 271 271 271 271 272 272 272 272 272 271 271 271 271 271 272 274 274 274 274 273 273 273 272 272 271 271 271 270 270 269 269 269 268 267 267 267 266 266 266 265 265 265 265 264 263 262 262 262 262 263 263 263 263 264 264
272 272 271 271 271 271 270 270 270 269 269 269 269 269 269 269 269 269 269 269 270 270 270 270 270 270 270 270 271 271 271 271 271 271 271 271 271 271 271 271 270 270 270 270 271 273 274 273 273 273 273 273 272 272 271 270 270 270 269 269 268 268 267 267 266 266 265 265 265 265 264 264 264 264 263 262 262 261 262 262 262 262 262 263 264
272 271 271 270 270 270 270 269 269 269 268 268 268 268 268 268 268 268 268 268 268 268 269 269 269 269 269 269 270 270 270 270 270 270 270 270 270 270 270 270 270 269 269 270 270 272 273 273 272 272 272 272 272 271 271 270 270 269 269 268 268 267 267 266 265 265 265 264 264 264 264 263 264 264 263 262 261 261 261 262 262 262 262 262 263
271 270 270 269 269 269 268 268 267 267 267 267 267 267 267 267 267 267 267 268 268 268 268 268 268 268 269 269 269 269 269 269 269 269 269 269 269 269 269 269 269 269 269 269 269 270 271 272 272 272 272 271 271 271 270 270 269 268 268 267 267 266 266 265 265 265 265 264 264 263 263 263 263 263 263 262 261 261 261 261 261 261 261 262 262
Wind_Speed
17 19 21 23 25 26 26 27 27 28 29 29 30 29 29 30 31 31 31 31 32 32 32 33 31 29 28 25 23 23 24 24 22 22 23 25 26 27 27 27 27 26 24 23 20 18 17 16 15 13 10 9 7 6 4 2 1 0 1 2 3 4 5 3 4 11 17 18 19 22 25 28 30 29 32 35 36 36 37 37 36 35 34 35 38
15 15 16 19 22 24 25 25 26 27 28 29 29 30 30 31 32 32 32 33 33 33 33 33 31 29 28 26 25 25 25 24 23 24 27 30 28 27 28 28 27 25 24 23 21 19 17 15 14 12 10 9 7 6 4 3 2 0 1 2 3 4 5 6 4 8 14 19 22 23 24 27 30 30 31 34 37 38 39 39 38 36 35 34 36
13 14 15 16 18 20 21 22 23 25 27 28 29 30 31 32 32 33 33 34 34 33 33 32 30 29 28 27 27 27 26 25 26 27 29 30 30 29 28 27 26 25 24 23 21 19 17 15 13 12 11 9 7 6 4 3 2 0 1 2 3 4 5 6 6 6 11 17 20 21 24 27 28 30 30 32 36 39 40 41 40 38 36 35 36
12 12 13 13 14 16 18 20 22 24 26 27 29 30 31 32 32 33 33 34 34 33 33 32 31 30 30 29 29 28 28 28 28 28 29 30 30 30 29 27 25 24 23 22 20 19 16 14 13 11 10 9 7 5 4 3 2 0 1 3 3 4 6 7 6 5 8 13 17 20 22 24 27 29 30 33 37 40 41 42 43 43 41 37 40
10 10 11 12 13 15 17 19 21 23 25 26 27 28 29 30 31 32 33 34 34 34 34 32 31 31 30 31 31 30 30 30 29 29 29 30 30 29 29 27 25 23 22 21 19 17 15 13 12 11 9 8 7 6 4 3 2 1 1 3 4 5 6 6 5 6 7 12 17 19 20 23 26 27 28 33 38 42 44 43 42 42 35 31 38
8 9 11 12 13 15 17 19 21 22 24 25 26 27 28 29 31 32 33 34 34 33 32 30 30 31 31 31 31 31 31 30 30 30 31 31 30 29 28 27 24 23 21 19 18 16 14 12 11 10 9 8 7 6 5 3 2 0 1 3 5 5 5 5 6 6 7 10 14 17 19 21 24 25 27 30 31 35 41 45 47 44 33 27 31
9 10 12 13 14 16 17 19 20 22 23 24 25 26 27 29 30 31 31 32 32 31 31 31 31 31 31 31 31 32 32 31 31 31 32 32 31 30 28 26 24 22 20 18 17 15 13 12 11 10 9 7 6 5 4 2 1 1 2 3 5 5 5 5 6 6 7 9 11 14 16 19 21 23 26 26 24 23 27 34 43 47 44 35 29
11 12 13 15 16 17 18 19 20 22 23 24 25 26 27 28 30 31 32 32 32 31 31 31 31 31 31 31 32 32 32 32 33 33 32 32 31 29 28 26 24 22 20 17 16 14 13 11 10 9 8 6 5 4 3 1 0 1 2 4 4 4 5 5 6 6 7 9 11 12 14 17 19 21 22 22 22 22 22 24 30 37 41 39 32
13 14 15 16 17 17 18 18 19 22 23 24 25 27 28 29 30 31 31 31 31 30 31 32 32 31 31 31 32 33 33 34 34 34 34 33 31 29 27 25 23 21 19 17 15 13 12 10 9 8 6 5 4 3 2 1 1 1 2 3 3 4 4 5 6 7 8 9 11 12 13 15 17 20 21 20 20 23 24 24 27 29 31 36 35
14 15 16 17 17 18 19 18 19 21 22 23 24 25 26 27 28 29 29 30 30 30 31 31 31 32 32 33 34 34 34 34 34 33 33 32 30 28 26 24 22 20 18 17 15 13 11 10 8 7 6 5 4 3 2 2 2 2 2 3 3 4 4 4 5 6 7 9 10 12 13 14 15 18 20 21 20 22 24 24 27 29 28 30 35
17 18 18 18 18 19 20 20 20 21 22 23 24 25 26 27 28 28 28 28 28 29 30 31 31 32 33 34 35 35 35 34 33 33 31 30 28 27 25 23 20 18 17 16 15 13 12 10 8 7 6 5 4 4 2 1 1 2 2 2 2 3 3 4 4 5 7 8 9 11 12 13 15 16 18 20 21 22 24 24 24 27 26 24 26
19 20 20 20 20 20 21 21 22 23 24 25 26 27 27 28 28 28 28 28 28 29 30 31 31 32 33 35 35 35 34 33 33 32 30 28 26 25 24 22 20 18 16 15 13 12 11 10 9 8 7 6 5 4 2 1 1 2 2 1 1 2 2 2 4 5 6 8 9 10 11 14 15 15 16 20 23 24 23 23 22 23 25 23 21
21 21 21 21 21 22 22 23 23 24 24 25 26 27 27 28 28 28 28 28 29 30 30 31 32 33 35 36 36 35 34 33 32 30 28 27 25 23 22 20 19 18 16 14 13 11 11 10 9 8 7 6 5 4 2 1 1 2 1 1 3 3 2 2 3 5 6 7 9 10 11 13 15 16 17 19 23 25 24 24 25 23 24 26 24
24 23 23 23 22 22 23 24 24 25 25 25 26 26 27 27 27 28 29 30 31 31 32 33 34 35 36 37 36 34 33 32 31 30 28 26 24 23 21 19 18 17 15 14 12 11 11 10 9 8 7 7 6 5 3 1 1 1 1 3 3 3 2 3 5 6 6 6 8 10 11 12 15 17 19 19 20 23 23 24 26 27 29 31 29
25 25 25 24 24 24 24 24 25 25 26 26 27 27 27 28 29 30 30 31 32 33 34 35 36 37 37 36 35 34 33 32 31 29 28 27 25 23 21 19 18 17 15 14 12 11 11 10 9 8 7 7 6 4 2 1 1 2 2 2 3 3 4 5 5 5 5 6 8 10 11 12 15 16 17 18 19 20 21 22 24 27 30 32 32
26 26 26 26 25 25 25 25 25 26 26 27 28 28 29 30 31 31 31 31 32 33 35 36 38 38 37 36 35 34 33 32 31 30 28 27 25 23 21 19 18 17 15 14 13 12 11 10 9 9 8 7 6 4 2 2 3 4 4 3 5 6 5 5 4 3 5 7 9 11 12 12 13 14 16 17 18 19 19 20 20 21 22 25 28
28 27 27 27 26 27 27 27 27 27 27 28 29 29 30 30 31 31 32 33 34 35 37 37 38 38 37 36 36 35 34 32 31 30 28 27 25 24 22 20 18 17 15 14 13 13 12 11 10 9 9 7 5 3 2 4 5 5 6 6 7 7 5 4 4 5 7 9 9 10 12 11 10 12 14 14 15 16 17 17 17 18 19 19 22
28 28 28 27 27 27 27 27 27 27 28 29 29 29 30 30 31 31 33 34 35 36 37 37 37 37 37 36 36 36 35 32 31 30 28 27 25 24 22 20 19 17 16 15 14 12 12 11 10 10 8 7 5 3 3 5 6 6 7 7 6 6 4 4 8 10 9 9 9 9 9 9 10 11 12 10 10 12 13 15 17 18 17 16 19
25 25 26 25 25 26 26 27 27 28 28 29 29 29 30 30 30 31 32 33 35 35 36 37 36 35 36 36 35 35 34 33 31 29 28 26 24 23 22 21 20 18 17 16 15 14 13 12 10 9 8 6 4 4 4 6 7 6 6 5 5 4 4 6 10 12 11 10 10 10 9 8 9 10 11 10 9 8 10 12 14 16 17 18 20
20 21 22 22 23 25 25 26 27 27 28 28 28 28 29 29 29 30 30 31 33 34 34 36 36 35 34 34 33 33 33 32 31 29 27 26 24 23 22 21 19 19 17 16 16 15 14 12 10 9 7 5 5 5 5 6 6 5 5 4 3 4 6 9 10 10 11 11 12 11 9 9 9 10 11 11 10 9 9 11 12 14 16 18 21
17 18 20 21 22 23 24 25 26 26 26 27 26 27 27 28 29 30 30 30 32 33 33 34 34 34 33 33 32 31 31 31 31 29 27 26 24 23 22 21 19 17 17 17 17 15 13 11 10 10 8 6 6 7 6 6 6 5 4 2 3 5 8 9 8 8 10 11 11 10 10 9 10 11 12 12 13 12 11 12 12 14 15 17 20
15 16 18 19 21 21 22 24 25 25 25 26 26 26 26 27 29 30 31 31 31 32 33 33 33 32 31 31 31 31 30 29 29 29 27 25 25 23 22 20 18 17 17 18 17 15 12 11 10 10 8 8 8 7 6 6 6 4 3 4 6 8 8 8 8 9 10 11 10 10 10 10 11 12 13 14 15 14 14 13 13 12 13 14 17
14 14 16 18 19 21 22 23 24 25 25 26 27 27 27 28 29 30 31 32 32 32 32 32 32 32 31 31 31 31 30 29 28 28 27 26 25 24 22 20 19 17 17 16 15 13 11 11 11 10 10 9 9 8 7 7 6 5 6 8 9 9 8 7 8 9 9 10 10 10 10 11 12 13 14 16 16 16 15 14 13 12 11 12 14
13 14 15 17 18 20 21 22 24 25 25 26 27 28 29 30 31 32 33 34 34 33 33 33 33 33 33 33 32 31 31 30 28 27 27 26 25 24 22 21 19 18 16 15 12 11 11 11 12 12 11 11 10 9 9 8 8 8 10 10 9 9 8 8 8 8 8 9 9 10 10 10 12 13 15 16 17 16 15 14 14 13 11 11 12
13 14 15 17 18 19 20 22 23 24 26 27 28 30 31 31 32 33 34 35 36 35 35 35 35 34 34 34 34 34 32 31 29 27 26 26 25 23 22 21 19 17 15 13 12 11 12 12 12 12 12 12 11 11 10 10 11 11 11 11 10 9 8 7 7 7 7 8 8 9 9 10 11 13 15 17 17 16 17 18 17 14 11 11 10
13 14 15 17 17 19 20 22 23 24 25 27 29 31 32 34 34 34 35 36 36 35 35 35 33 32 33 34 35 35 34 33 31 29 26 25 24 22 21 20 18 16 13 12 12 13 13 13 13 14 13 13 12 12 12 13 13 13 12 12 10 9 8 7 6 6 6 6 7 8 9 9 11 12 14 16 17 17 18 21 20 16 12 10 7
14 15 16 17 18 19 21 22 23 24 25 27 28 30 32 34 35 36 37 36 34 33 33 33 32 32 33 33 34 36 35 34 33 32 30 28 26 24 22 20 19 17 15 15 16 16 15 15 15 15 15 14 14 14 14 14 14 14 13 12 11 9 8 7 6 5 5 5 5 7 8 9 11 12 14 15 16 16 17 20 20 18 17 17 14
14 15 16 17 18 19 21 22 23 24 25 27 29 30 32 34 35 37 39 40 38 36 36 36 37 38 38 36 36 36 37 37 38 38 37 34 31 28 27 25 23 21 19 18 19 19 18 18 18 18 17 17 16 16 15 16 15 15 15 12 10 9 8 6 5 4 4 4 5 6 8 9 11 12 14 15 15 16 17 17 17 17 18 19 19
14 15 16 18 18 19 20 21 22 24 25 27 28 30 31 34 35 37 38 40 40 39 39 40 43 43 41 41 41 41 41 42 44 42 39 35 33 30 29 27 25 22 20 21 21 21 21 20 20 20 19 19 18 17 18 18 17 16 15 13 11 10 8 7 6 4 4 3 4 5 7 9 10 12 13 15 15 14 15 15 14 15 16 16 15
14 16 17 18 18 19 20 21 22 23 24 25 27 28 28 31 33 34 34 36 37 35 34 36 39 38 38 40 44 45 45 45 45 41 37 35 32 29 26 25 23 21 21 22 22 22 23 23 23 23 22 21 21 20 20 20 19 17 15 13 12 11 9 8 7 6 4 3 3 4 5 7 9 10 12 13 14 14 14 13 12 13 14 14 13
14 16 17 18 19 19 19 20 21 22 23 24 25 26 26 27 30 32 32 33 33 34 33 32 34 35 35 38 41 42 42 41 40 39 37 34 32 31 28 25 24 23 24 25 25 25 25 25 25 25 24 23 22 22 22 22 20 18 15 14 13 12 11 9 8 6 5 3 2 2 4 5 7 9 10 10 12 13 13 11 10 11 11 11 12
15 16 17 18 18 18 19 19 20 21 22 22 23 25 25 25 26 29 31 31 32 33 34 33 33 33 35 36 37 39 39 36 35 37 36 34 33 32 30 27 26 25 25 26 27 27 27 26 27 28 27 25 25 25 24 23 20 18 17 16 14 13 11 10 9 7 5 4 2 2 3 4 6 7 8 9 10 11 11 9 8 10 10 10 11
15 16 17 17 17 18 18 19 19 21 22 23 24 25 26 25 25 26 28 30 31 32 33 34 34 33 32 33 36 38 38 35 34 35 36 35 34 32 30 29 27 26 28 29 30 29 29 28 28 29 28 27 27 26 25 23 20 18 18 17 15 13 12 11 10 8 6 5 3 2 2 3 5 6 7 8 8 9 9 8 8 10 10 10 11
15 16 17 16 17 17 18 19 20 21 22 23 24 25 26 28 27 25 24 25 27 29 31 34 34 33 32 32 34 36 37 36 35 35 36 36 34 32 29 27 25 25 29 33 33 32 31 30 30 31 30 28 28 28 26 23 21 20 19 18 16 14 13 12 11 9 7 6 4 2 1 2 3 5 7 8 7 7 7 7 8 9 9 9 11
15 16 16 16 16 17 18 19 20 20 21 23 24 25 27 28 27 26 25 24 25 27 30 31 32 32 32 32 33 35 37 37 35 34 34 34 33 30 28 27 27 29 33 35 35 35 35 35 34 33 31 29 29 29 27 23 21 21 20 19 17 16 15 13 12 10 8 6 5 4 2 1 2 4 5 6 6 6 7 7 7 9 9 9 10
14 15 15 16 16 17 18 18 19 20 21 22 24 25 26 26 25 25 25 25 25 26 26 25 26 28 28 29 31 33 34 34 32 30 31 32 31 31 32 32 33 35 35 36 37 37 36 37 36 33 31 31 30 29 27 24 22 21 21 20 18 17 16 15 13 11 9 7 6 5 3 1 2 3 4 5 5 5 5 6 7 8 8 9 9
12 14 15 16 16 17 17 18 18 19 20 21 22 23 23 24 25 25 25 25 25 24 23 22 23 24 25 26 28 28 28 27 25 26 27 28 29 32 35 36 35 35 35 36 37 35 35 36 36 34 32 32 31 30 27 24 23 22 21 20 19 18 16 15 14 12 10 8 7 6 4 2 1 2 3 4 4 5 5 6 7 7 8 9 9
11 13 14 15 16 17 17 18 18 19 20 20 21 21 22 23 24 25 26 26 25 24 23 23 24 25 27 27 27 26 24 22 22 24 26 28 30 33 36 36 36 36 36 37 37 35 34 36 37 35 33 32 31 30 28 25 24 24 23 22 20 19 17 16 15 13 11 10 8 7 5 3 2 1 2 3 3 4 4 5 6 7 8 9 8
10 12 13 14 15 16 16 17 18 18 19 20 20 21 22 23 23 24 25 25 25 25 26 26 27 29 30 29 27 26 25 26 28 30 31 32 34 35 36 36 36 37 37 38 38 37 36 37 38 36 34 32 30 29 28 26 25 25 24 23 22 21 19 18 16 14 13 11 9 8 6 5 3 2 2 2 2 3 3 5 6 7 8 9 9
8 10 11 13 14 15 16 16 17 18 19 20 21 21 22 23 24 24 24 24 25 25 26 26 28 30 30 29 30 30 31 32 32 32 32 33 35 36 36 37 38 38 38 38 39 40 40 39 38 36 34 32 30 29 28 27 26 26 25 25 24 22 20 19 17 15 14 13 11 9 8 6 5 4 3 2 2 3 3 3 5 7 8 9 10
8 9 11 12 13 14 15 16 18 19 20 20 21 22 23 24 24 24 24 25 25 25 25 27 28 28 27 28 30 32 33 33 31 30 31 33 34 35 37 38 38 39 39 40 41 41 41 39 37 36 34 32 31 30 29 28 27 28 27 26 25 23 21 20 18 17 15 14 12 11 9 7 6 5 4 3 3 3 3 3 3 6 8 9 10
8 9 10 11 12 13 15 17 18 19 20 21 22 22 23 24 24 24 24 25 25 25 26 27 27 27 27 28 29 31 33 34 31 31 32 34 35 36 38 39 40 40 41 42 43 43 41 39 37 36 36 34 33 32 31 30 30 30 28 27 26 24 23 21 19 17 16 15 13 12 10 9 8 6 5 4 4 4 4 4 3 4 7 9 9
8 9 10 11 12 13 15 16 17 18 19 20 21 22 22 23 23 23 24 24 25 25 25 26 25 25 26 28 28 30 33 36 35 34 35 35 36 38 40 41 42 43 43 44 44 43 42 40 38 38 37 35 34 32 32 31 31 30 29 28 27 25 24 22 20 19 17 16 14 13 12 11 10 8 7 6 5 5 5 5 4 4 6 7 8
8 9 10 11 12 13 14 15 16 17 18 19 20 21 21 22 23 23 23 24 24 24 25 26 25 24 24 26 27 29 33 36 37 38 39 39 39 41 42 43 43 43 44 44 44 43 42 40 38 37 36 34 33 32 31 30 29 29 29 29 28 27 26 24 22 19 18 16 15 15 14 13 12 11 9 7 6 6 6 6 6 6 6 6 7
7 9 10 11 12 13 14 15 16 17 18 18 20 21 21 22 23 23 23 24 25 25 25 26 25 24 25 26 27 30 33 35 36 38 40 41 42 42 43 42 43 44 45 46 45 44 42 40 38 37 36 35 34 33 31 30 30 29 29 28 27 26 25 22 20 18 18 17 17 16 15 14 13 12 11 9 7 7 7 7 7 7 8 7 6
7 8 10 11 12 13 14 15 16 17 17 18 20 21 21 21 22 23 24 25 25 25 26 26 25 25 26 27 28 30 33 34 35 37 39 40 41 42 41 41 42 44 45 46 46 45 44 42 40 38 37 36 35 34 33 32 31 30 29 28 26 25 22 20 19 19 20 19 17 16 16 16 15 13 12 10 9 9 9 8 8 8 8 7 7
7 8 9 11 12 13 14 15 15 16 17 18 19 20 21 22 22 23 24 24 25 26 27 27 27 27 28 28 29 31 32 33 35 36 38 39 40 40 40 39 40 42 43 44 45 44 43 42 41 39 37 36 36 35 34 33 31 30 29 27 26 24 22 21 21 21 20 18 18 17 17 17 16 14 13 12 11 11 10 9 9 9 9 8 8
8 9 10 11 12 14 15 15 16 17 18 18 19 21 21 22 23 23 24 25 25 26 27 27 28 28 28 29 30 31 32 33 35 36 36 37 38 38 38 39 40 41 42 43 44 44 43 42 41 40 38 37 36 35 34 32 31 30 28 27 25 23 22 22 22 21 20 19 19 18 18 18 17 16 15 13 13 13 12 10 10 10 10 9 8
9 10 11 12 13 14 15 15 16 17 18 18 20 21 21 22 23 24 24 25 26 26 27 27 28 28 28 29 30 30 31 32 34 35 35 36 36 36 37 38 39 41 42 43 44 44 43 43 42 41 39 37 36 35 33 32 30 29 28 26 24 23 22 22 21 21 20 20 20 20 20 20 19 18 17 16 15 14 14 12 11 11 11 11 9
10 11 12 13 14 15 15 16 17 18 18 18 20 21 21 22 22 23 23 24 25 26 26 26 27 28 28 29 30 30 31 32 34 34 35 35 35 35 36 37 38 40 42 43 44 43 43 43 42 40 38 37 36 34 33 31 30 28 27 25 24 23 22 22 22 21 21 20 20 21 21 21 20 19 19 18 17 17 16 14 12 12 13 12 10
12 12 13 14 15 15 16 17 18 18 18 19 20 21 21 22 22 22 22 23 24 24 25 25 26 27 28 29 30 31 32 33 33 34 34 34 34 34 35 36 38 39 41 42 43 43 43 43 42 40 39 37 36 34 33 31 29 28 26 25 24 23 23 23 22 21 20 20 21 21 22 22 22 22 21 20 20 19 17 14 13 13 14 13 11
Wind_Direction
236 235 235 233 232 232 231 231 229 229 228 228 227 227 227 226 225 223 221 220 214 206 202 200 198 198 197 198 204 207 207 204 197 191 183 175 172 168 165 166 166 163 163 164 166 170 173 169 165 162 162 165 165 163 168 170 165 120 57 21 10 0 349 339 265 286 305 316 320 326 334 338 343 346 344 343 345 344 343 344 345 346 346 344 345
239 237 235 233 232 232 231 230 229 227 226 226 226 225 224 223 222 220 218 216 209 203 201 198 196 197 198 201 204 204 203 194 183 177 171 168 170 170 168 168 168 166 166 167 167 170 172 169 164 162 166 172 174 171 172 177 183 152 62 32 12 1 345 334 309 291 302 315 325 331 337 340 342 344 345 343 341 340 340 341 343 343 343 343 343
238 237 233 231 230 229 229 229 227 225 224 223 222 221 221 220 218 217 216 211 203 200 200 199 197 199 200 202 201 200 196 185 176 175 174 172 173 171 170 171 171 170 170 170 169 169 171 169 166 166 172 179 179 175 175 174 171 151 8 15 9 353 336 328 322 303 302 315 326 331 335 340 341 342 342 340 338 339 338 339 341 340 341 342 340
236 233 231 229 226 224 224 224 223 222 221 220 220 218 218 217 215 214 212 206 199 197 199 199 199 201 200 199 198 196 190 182 177 177 178 177 175 171 171 174 174 173 173 172 170 171 173 173 172 174 179 184 180 175 176 178 186 216 346 354 353 338 330 329 326 319 310 312 318 326 332 336 338 340 341 339 337 338 338 337 338 338 339 340 338
235 229 225 224 223 221 221 220 219 219 218 218 218 217 217 216 214 211 206 201 197 196 196 197 199 200 200 198 196 192 187 182 179 179 182 181 176 173 173 175 176 175 174 173 172 173 177 180 180 180 185 187 181 178 181 188 214 253 349 341 340 340 338 341 341 333 320 310 313 323 331 333 335 340 343 340 339 339 338 336 334 334 336 335 336
231 222 219 219 220 219 218 217 216 217 218 217 216 217 216 214 211 206 202 198 195 194 194 197 200 201 199 196 194 190 186 183 181 181 182 181 178 175 176 176 176 174 173 173 173 176 181 184 184 185 190 194 187 184 189 192 212 286 4 347 345 353 356 357 352 342 328 315 314 320 326 331 334 337 341 342 341 339 337 333 331 332 331 329 332
224 218 217 216 217 217 215 216 216 215 217 217 216 215 213 209 205 200 198 197 195 194 195 197 198 198 196 194 192 189 186 184 183 182 182 181 179 177 177 176 175 174 174 174 175 179 183 183 186 188 192 198 196 193 200 195 182 344 359 360 359 8 13 4 353 346 332 323 321 320 323 329 331 331 336 341 341 337 335 331 328 328 328 327 329
221 217 216 214 215 215 213 214 215 214 214 214 211 208 206 203 200 197 196 196 196 196 196 195 194 194 195 194 192 190 187 184 183 182 181 180 180 179 178 177 176 174 173 175 177 180 182 184 189 192 194 200 204 207 213 204 156 348 351 4 13 21 21 6 353 347 337 328 326 324 324 328 329 329 333 341 341 335 332 327 318 318 322 323 325
221 216 215 214 214 213 210 211 213 211 209 207 204 200 198 197 195 194 193 194 195 196 196 196 194 193 194 194 192 190 187 184 182 182 182 181 181 181 180 179 179 178 176 176 177 179 183 187 190 194 199 203 211 221 225 255 286 314 349 4 24 30 23 9 355 346 337 330 326 327 328 328 329 330 330 335 335 326 324 323 314 312 317 318 319
219 216 214 214 213 210 206 207 210 207 203 202 200 197 195 193 192 192 192 194 196 196 196 195 195 195 194 192 189 186 184 182 181 183 184 184 183 182 180 179 181 182 181 178 177 179 183 189 193 197 203 206 212 217 221 268 301 333 355 11 37 34 19 5 353 340 331 327 324 325 325 322 324 325 322 322 324 321 322 322 316 315 319 318 319
216 215 214 213 213 210 206 204 205 204 202 200 198 195 194 193 193 193 194 195 197 197 197 196 195 195 192 188 184 182 181 181 182 184 186 186 185 183 181 180 180 182 184 182 180 182 185 190 195 198 202 205 203 202 206 239 314 3 18 36 37 23 13 355 337 325 321 318 315 317 315 312 316 319 317 318 321 321 320 318 314 316 319 319 318
215 215 214 213 212 211 209 206 203 202 201 199 197 195 194 193 193 195 197 198 198 197 196 196 193 191 188 184 181 179 179 180 182 185 186 186 186 186 184 183 182 182 184 185 186 187 188 192 197 200 201 200 198 200 200 191 42 33 52 61 341 356 13 334 308 309 309 305 306 308 306 307 311 315 318 320 320 319 317 315 313 313 313 312 308
216 216 215 215 215 212 211 208 205 203 200 199 198 197 196 196 197 199 200 200 199 196 195 194 191 188 185 181 179 177 178 180 183 185 185 185 186 187 186 185 185 185 186 187 189 190 192 197 200 200 199 196 198 199 194 200 3 33 58 296 325 355 15 310 292 294 295 296 299 299 301 307 310 312 317 319 317 316 315 313 313 312 309 308 303
215 216 215 215 217 214 211 208 205 204 201 200 200 200 201 203 203 203 202 199 197 195 193 191 187 185 183 181 178 177 178 181 184 184 184 184 185 186 186 186 187 188 187 188 190 193 198 203 203 200 197 196 198 198 196 227 340 358 302 308 338 9 350 298 291 287 289 295 295 295 300 306 307 308 314 317 314 311 311 310 312 312 309 307 304
216 217 216 216 216 214 212 208 206 205 204 203 204 204 207 207 205 203 201 199 197 194 191 188 185 183 182 181 178 177 179 183 184 185 185 185 185 187 188 187 187 187 188 190 193 196 200 203 203 201 198 198 200 196 195 266 281 276 292 313 329 326 301 295 297 298 302 304 298 299 304 305 307 309 312 313 310 306 305 303 305 308 309 309 312
218 217 217 217 216 214 213 211 210 210 208 207 206 206 207 206 204 201 198 196 195 193 190 188 185 183 181 181 179 178 181 184 185 186 187 187 187 187 188 188 188 189 189 191 194 197 198 200 200 201 202 203 201 186 185 257 263 269 285 294 297 303 309 314 319 309 300 297 295 298 300 301 306 310 310 310 309 307 307 304 304 311 313 312 315
219 218 217 217 216 215 214 213 213 212 210 209 208 207 206 205 203 201 197 194 192 190 189 187 186 184 181 181 181 180 182 185 187 188 188 189 189 188 188 188 189 190 191 193 196 198 197 198 199 201 202 201 198 183 208 250 258 267 280 287 297 315 337 339 317 310 309 309 308 307 307 308 309 308 307 308 310 313 312 309 311 318 318 314 314
220 218 219 218 217 217 215 214 213 211 211 210 209 208 207 205 204 201 198 194 191 189 188 186 185 185 183 183 185 185 184 186 188 189 189 190 192 191 190 189 189 190 191 193 196 199 199 200 200 201 199 196 198 199 225 253 263 270 283 295 312 334 350 319 307 316 325 327 324 322 323 324 319 317 322 325 325 321 311 306 313 318 316 312 312
222 220 221 220 219 219 217 215 216 215 214 213 212 211 209 206 204 200 197 195 191 188 187 185 183 184 185 185 187 188 188 187 189 191 190 190 192 192 191 191 190 191 192 193 196 199 202 202 198 196 198 199 207 214 226 255 271 278 290 306 327 341 327 303 306 318 328 335 339 340 340 336 330 334 343 350 354 341 314 306 311 314 312 310 311
226 225 225 224 222 222 220 218 218 218 218 216 213 211 209 206 202 198 195 194 190 187 187 186 184 183 184 186 188 190 191 190 190 192 192 191 192 192 193 194 193 193 194 194 197 200 201 201 198 197 202 207 214 223 232 253 274 286 296 314 334 320 299 298 306 316 327 339 346 346 344 345 346 350 353 355 2 355 326 310 310 311 309 308 309
230 228 228 226 225 224 222 221 221 220 219 217 213 210 209 205 201 196 193 192 189 187 186 186 184 182 183 186 188 191 194 194 193 192 192 192 193 194 195 197 197 196 196 196 199 201 200 200 199 199 204 211 218 227 235 246 262 281 296 304 290 277 283 296 309 318 328 338 345 346 349 354 355 357 357 354 355 353 335 318 311 310 307 304 304
232 229 227 225 224 223 222 222 221 219 218 215 211 208 206 204 201 197 193 190 188 186 186 185 184 182 182 186 189 192 195 197 196 194 192 193 194 195 196 197 197 198 199 199 200 200 200 201 202 202 206 213 220 226 231 240 251 261 257 245 253 267 283 300 312 322 331 340 346 350 356 358 356 357 357 353 352 350 340 328 320 315 309 304 301
230 226 223 223 222 221 221 220 218 217 215 213 210 206 203 201 199 196 194 190 187 186 185 185 184 182 183 186 190 193 195 197 198 195 193 195 195 194 195 196 197 200 202 201 200 199 201 204 205 206 209 214 221 223 223 232 243 241 238 246 259 274 288 298 310 324 335 341 348 354 358 358 356 354 352 348 347 346 343 338 336 331 323 315 306
224 221 220 220 219 219 219 218 217 216 213 211 208 204 201 199 196 195 194 190 187 186 186 186 185 184 185 187 190 193 194 195 197 196 195 195 195 193 194 195 197 201 201 200 200 202 206 209 208 209 212 214 218 221 224 230 235 236 243 255 266 273 282 295 311 325 335 343 349 353 356 355 352 350 346 344 345 346 347 347 346 342 334 324 313
220 220 219 219 218 217 216 215 215 215 213 210 207 203 200 197 194 193 192 190 189 188 187 188 188 187 187 188 190 192 193 193 194 195 195 195 193 192 194 195 198 199 198 198 204 208 207 207 208 209 211 213 216 221 226 231 235 241 249 257 263 268 279 296 311 321 331 342 345 345 348 349 348 347 344 344 348 353 353 353 351 346 338 326 311
220 221 220 220 218 216 214 212 212 213 212 212 210 207 204 199 195 193 192 193 193 192 190 190 190 189 190 192 192 192 192 193 194 194 193 193 193 192 194 196 198 197 195 198 204 204 201 201 206 210 211 215 220 223 226 231 236 244 250 253 258 267 279 291 302 314 326 335 338 338 339 342 345 346 345 347 354 358 358 356 352 345 338 328 307
221 221 221 220 218 215 214 212 211 211 210 210 210 209 207 203 198 195 194 194 194 194 193 192 191 192 195 196 196 194 192 193 195 195 193 192 191 190 191 194 197 196 195 197 197 196 197 200 206 212 215 218 223 225 227 232 236 242 246 249 256 265 272 279 289 303 315 322 330 337 339 342 344 347 349 352 356 1 4 0 351 342 340 340 336
224 224 223 220 218 216 215 214 213 212 211 210 209 209 208 206 203 203 202 200 198 197 197 197 197 199 199 197 195 193 193 196 200 200 198 194 191 191 192 194 197 199 200 200 196 194 198 202 206 212 217 220 224 225 227 231 234 237 241 245 250 254 258 264 272 284 301 315 333 343 344 345 346 350 353 354 356 4 9 3 350 341 343 346 344
226 227 225 221 218 216 216 217 217 216 214 214 213 214 214 212 211 212 212 209 206 204 204 204 205 205 203 202 198 194 196 204 208 206 203 200 198 199 200 200 201 205 207 205 199 195 198 203 208 213 215 217 221 223 225 229 232 233 237 240 241 240 241 243 245 256 279 304 334 347 346 347 349 352 354 353 355 5 9 0 348 343 346 347 343
226 228 226 223 221 218 216 218 219 218 218 217 216 218 219 219 218 218 218 216 214 212 212 213 213 211 209 209 207 204 207 212 212 207 204 203 203 206 209 208 207 208 207 204 201 200 201 205 210 215 215 216 219 222 225 228 230 231 232 232 230 230 232 235 237 243 257 281 328 349 346 349 351 350 350 349 350 1 9 2 349 346 348 346 340
228 229 229 228 227 223 221 220 220 219 220 221 220 219 220 222 223 223 223 222 219 218 220 222 222 221 218 217 214 212 214 217 214 207 204 203 205 208 210 209 208 209 206 202 201 203 206 208 211 214 215 217 221 224 226 228 229 229 227 225 224 223 226 232 236 238 244 260 307 344 344 352 353 347 347 346 345 355 5 3 352 349 349 343 336
232 235 236 235 233 230 226 224 222 221 221 222 222 221 221 222 224 226 226 226 225 224 225 226 228 228 228 225 220 216 216 218 216 210 205 205 207 209 208 208 209 208 205 203 205 207 209 210 212 213 213 216 220 224 226 228 228 227 223 221 220 221 222 228 233 235 238 247 270 321 343 357 355 346 348 351 348 349 354 353 349 349 347 340 334
238 241 242 241 237 234 230 227 225 225 223 223 223 222 221 221 224 226 227 228 229 230 229 230 231 231 231 231 227 223 221 219 215 210 208 208 209 208 206 207 207 202 198 201 206 208 210 212 214 214 214 217 220 223 224 225 225 224 224 222 220 220 222 225 230 236 239 239 250 289 334 355 353 349 354 357 351 345 342 341 346 349 345 339 338
242 244 246 246 242 238 236 233 232 231 229 227 226 225 224 225 226 226 226 225 228 231 232 232 233 233 232 232 230 226 223 219 215 211 210 209 207 204 201 201 200 199 203 208 210 209 210 212 214 214 216 217 220 222 223 222 220 220 221 221 219 219 222 225 227 231 235 234 240 263 298 359 357 352 356 358 351 340 336 338 345 349 344 339 337
245 246 248 249 247 245 244 241 239 237 234 232 231 231 231 230 229 227 226 225 226 229 231 231 231 231 232 232 230 226 222 219 216 213 210 206 201 196 191 189 190 196 206 212 213 213 214 215 214 213 214 216 219 221 221 219 217 217 218 218 218 217 219 223 225 226 227 228 232 243 259 336 4 354 352 357 353 341 336 338 341 343 341 336 334
250 250 251 252 252 252 251 249 247 244 242 240 239 238 236 234 232 231 231 231 232 233 234 234 232 230 231 232 230 225 220 218 217 214 208 202 196 191 190 191 194 198 205 210 213 214 216 216 214 212 212 215 218 220 220 217 215 216 216 216 217 217 217 220 222 221 220 224 228 231 237 267 350 350 345 351 356 349 338 334 333 336 337 333 331
255 255 255 256 257 256 256 255 254 252 250 248 245 242 239 237 235 234 234 234 236 237 237 235 231 226 226 228 228 224 220 217 215 210 204 199 197 198 200 201 201 203 207 211 213 214 215 216 214 211 211 213 216 217 217 215 213 213 214 215 216 217 217 218 220 219 218 220 225 230 234 242 294 333 332 338 352 0 351 336 330 330 332 331 330
258 258 258 259 259 259 259 259 258 256 254 251 248 245 243 240 238 236 236 236 236 236 235 233 228 223 221 223 223 219 214 209 205 204 203 201 201 204 208 209 209 210 213 215 216 215 216 218 217 214 211 212 213 214 214 212 211 211 213 214 215 216 216 217 217 218 220 221 223 226 233 242 259 293 309 315 334 352 352 340 333 331 329 330 329
259 260 260 260 260 260 260 260 260 258 255 252 250 247 245 243 241 239 239 238 238 237 234 232 229 226 224 222 218 211 205 203 204 204 205 205 206 209 211 213 214 215 217 219 219 219 219 220 220 217 214 211 211 211 211 211 211 212 212 213 214 215 216 217 217 218 220 224 225 224 226 236 251 267 291 306 320 338 342 339 341 338 330 324 321
271 268 266 263 261 261 261 260 259 258 255 253 251 249 246 245 244 243 243 242 242 241 239 236 234 232 228 224 218 210 206 208 211 210 209 210 211 213 214 216 217 219 220 221 222 222 223 223 222 219 215 211 209 210 210 210 210 211 212 214 216 217 217 217 218 219 221 224 228 228 225 228 241 258 282 300 314 326 326 328 340 341 330 320 317
283 279 275 271 266 263 260 257 256 256 255 254 253 250 248 248 247 246 246 245 244 245 245 243 242 241 236 232 226 218 215 218 219 219 218 217 217 217 219 220 222 222 223 224 225 225 225 224 222 219 216 212 209 209 209 209 209 210 212 215 217 218 218 218 217 219 221 223 228 232 231 231 237 249 268 291 306 314 314 318 335 336 327 322 322
284 280 279 277 270 263 259 257 257 257 255 253 252 251 251 252 251 249 249 248 248 248 248 248 248 246 242 238 233 227 225 227 227 226 226 225 224 224 224 224 225 227 228 228 228 227 226 225 222 220 217 214 210 209 209 209 209 210 212 215 217 217 218 219 218 220 222 224 227 232 236 238 242 246 256 274 290 302 310 322 336 328 320 321 326
281 279 279 276 271 266 263 262 261 260 257 256 257 257 256 256 254 253 252 252 251 250 250 251 251 249 245 243 238 232 230 231 231 231 232 231 229 229 230 230 230 232 233 233 232 230 229 227 223 221 220 217 215 214 213 212 212 212 212 215 217 218 219 219 218 219 222 224 226 231 237 242 246 248 251 262 278 292 305 319 324 314 309 315 325
282 281 279 278 276 273 271 269 267 266 264 264 264 263 261 259 258 256 255 256 255 254 254 254 254 252 249 245 239 233 232 233 233 233 234 235 234 234 234 234 234 235 235 235 234 232 231 229 226 223 222 220 218 218 218 217 216 216 216 216 216 217 218 219 219 220 223 225 227 231 236 241 245 248 249 254 268 283 296 310 314 304 299 305 317
290 286 283 281 280 278 277 276 274 272 270 269 267 265 263 262 260 259 258 258 259 259 259 259 257 255 252 248 241 237 237 237 237 237 238 238 238 238 237 236 237 237 238 238 237 235 232 229 226 223 221 219 218 218 217 216 216 217 218 218 218 220 221 221 219 220 223 225 228 232 237 241 244 248 249 253 262 275 287 300 305 299 295 299 308
298 292 288 285 283 281 280 280 277 275 272 269 268 267 266 264 263 262 261 261 261 261 262 262 260 258 255 251 247 244 243 242 242 242 243 243 242 242 241 240 239 239 239 239 238 236 232 227 224 222 220 220 219 218 217 217 217 218 219 220 221 222 223 221 219 220 223 226 229 233 237 241 244 245 247 251 259 267 276 287 295 294 293 294 296
306 299 292 288 284 282 280 279 277 275 273 270 268 268 267 266 266 265 263 263 264 264 264 264 262 260 258 255 252 250 249 248 247 247 247 247 247 246 244 242 240 240 240 239 238 236 232 226 223 221 220 221 221 220 219 219 219 219 220 220 221 222 222 220 221 224 226 227 230 234 238 242 245 245 245 248 254 260 267 276 286 289 291 292 291
310 303 296 291 287 283 281 280 277 274 273 272 271 270 269 269 269 268 267 267 266 265 265 264 263 262 261 260 258 256 254 253 253 252 251 251 250 249 246 244 242 241 241 240 239 236 230 224 222 221 220 221 222 222 221 222 221 221 222 222 222 223 224 224 225 227 227 228 230 233 237 241 244 246 247 247 251 257 262 267 276 284 287 289 291
304 300 296 293 289 286 285 285 281 278 277 276 275 274 273 273 272 271 270 269 268 267 266 266 265 265 264 263 262 261 259 257 256 255 254 254 253 251 248 246 244 243 242 241 240 236 228 223 222 222 221 222 223 224 224 224 224 225 225 225 225 226 227 228 229 229 229 230 231 232 235 239 242 246 250 251 252 256 259 260 267 278 283 283 287
298 296 294 291 289 288 288 286 282 281 280 279 277 277 277 276 275 274 273 272 270 269 269 268 268 268 268 267 266 265 263 261 259 259 258 257 255 253 250 247 245 244 244 243 241 237 229 223 222 222 222 222 224 225 226 227 228 229 230 230 230 230 230 231 231 231 230 232 233 234 236 238 240 244 248 250 251 253 256 256 260 270 276 278 282
294 293 291 289 289 289 287 285 283 283 282 280 279 279 278 276 276 276 275 273 273 273 273 273 273 272 271 270 269 268 266 265 263 262 261 259 257 254 252 249 246 245 245 244 241 236 230 225 223 222 222 223 223 225 226 228 230 232 233 234 234 233 232 232 232 232 232 233 234 235 236 237 238 241 245 248 249 251 254 253 254 261 269 273 277